Location: Absher
(46.5583°N, 107.9840°W)
Time: 08:17:49
(UTC+00:00)

TIGRISAT - Pass Details

Date: 09 April 2023
Orbit: 599 x 682 km, 97.7° (Epoch: 28 May)

Event Time Altitude Azimuth Distance (km) Brightness Sun altitude
Rises 11:10:40 0° 141° (SE) 2,970 ? -14.6°
Reaches altitude 10° 11:13:00 10° 132° (SE) 2,076 ? -14.3°
Maximum altitude 11:17:06 34° 68° (ENE) 1,100 ? -13.7°
Drops below altitude 10° 11:21:17 10° 4° (N) 2,126 ? -13.0°
Sets 11:23:42 0° 355° (N) 3,052 ? -12.6°
